Details From LFMU - Béziers Vias
To PAOR - Northway
Flight Number -
Tags Generated
Created
Modified
Stats Distance 4,215 nm / 7,807 km
Max Altitude 0 ft / 0 m
Waypoints 9
Social Downloads 1
Likes 0
Share VATSIM

Download

Looking for another format? Having issues loading an existing format? Contact us
Advertisement - Login to hide

Notes

Generated

Route

LFMU CTX HAWKE POL22 GUSSI N7215 UB ORT12 PAOR

ID Type Via Altitude Latitude Longitude Leg Dist Tot Dist Heading (true) Name
O LFMU APT - 0 ft / 0 m 43.32402˚ 3.34239˚ - 0 nm - -
CTX NDB - 0 ft / 0 m 46.93661˚ 1.80114˚ 226 nm 226 nm 344° / 343° CHATEAUROUX NDB
HAWKE FIX - 0 ft / 0 m 50.37417˚ 0.09028˚ 217 nm 443 nm 342° / 341° -
POL22 FIX - 0 ft / 0 m 54.09528˚ -1.99583˚ 236 nm 680 nm 342° / 340° -
GUSSI FIX - 0 ft / 0 m 57.21306˚ -4.12417˚ 200 nm 880 nm 340° / 338° -
N7215 FIX - 0 ft / 0 m 72.25000˚ -125.00000˚ 2659 nm 3540 nm 338° / 222° -
UB NDB - 0 ft / 0 m 69.43444˚ -133.01722˚ 231 nm 3771 nm 227° / 219° TUKTOYAKTUK NDB
ORT12 FIX - 0 ft / 0 m 62.96102˚ -141.94428˚ 443 nm 4215 nm 213° / 205° -
O PAOR APT - 0 ft / 0 m 62.96009˚ -141.93867˚ 0 nm 4215 nm 110° / 110° -

Altitude Profile

Advertisement - Login to hide

Weather


0- 5 10 15 20 25 30 35+ Temperature / ° C

Clouds and Precipitation
Forecast for 2018-05-24 18:00 UTC. Updated 37 minutes ago

Ground ~20,000 ft ~40,000 ft Winds

LFMU

Details ICAO LFMU (BZR)
Name Beziers Vias
Region France
Timezone Europe/Paris (UTC+2.0)
Stats Elevation 54 ft / 16 m (AMSL)
Location 43.323422° 3.353573°
Runways 1
Magnetic Variation 1.151° E

METAR

LFMU 241730Z AUTO 15006KT 9999 SCT018 20/16 Q1017 TEMPO 07010KT 2000 BR BKN005

Decode

TAF

TAF AMD LFMU 241616Z 2416/2515 07010KT 9999 SCT020 TEMPO 2416/2419 BKN015 TEMPO 2419/2509 VRB04KT 2000 BR BKN005 BECMG 2509/2511 17008KT

Decode

Departure Runways

ID Width Length Bearing (true) Bearing (mag) Surface Threshold Offset Overrun Length
10 115 ft / 35 m 5,955 ft / 1,815 m 94.20° 93.05° Asphalt 459 ft / 140 m 0 ft / 0 m
28 115 ft / 35 m 5,955 ft / 1,815 m 274.22° 273.07° Asphalt 0 ft / 0 m 0 ft / 0 m

PAOR

Details ICAO PAOR (ORT)
Name NORTHWAY
Region USA (Alaska)
Timezone America/Anchorage (UTC-8.0)
Stats Elevation 1,716 ft / 523 m (AMSL)
Location 62.961333° -141.929136°
Runways 1
Magnetic Variation 18.768° E

METAR

PAOR 241653Z 00000KT 10SM BKN050 07/03 A2958

Decode

TAF

TAF PAOR 241720Z 2418/2518 27008KT P6SM VCSH SCT035 BKN050 OVC100 FM250600 VRB06KT P6SM SCT035 BKN050 BKN100

Decode

Destination Runways

ID Width Length Bearing (true) Bearing (mag) Surface Threshold Offset Overrun Length
04 100 ft / 30 m 3,293 ft / 1,004 m 73.97° 55.20° Gravel 0 ft / 0 m 1,353 ft / 412 m
22 100 ft / 30 m 3,293 ft / 1,004 m 253.99° 235.22° Gravel 0 ft / 0 m 1,000 ft / 305 m

Popular Alternatives